Temperature
20 20 20 20 20 20 20 20 19 19 19 19 19 19 19 19 19 19 19 19 19 19 19 19 19 19 19 19 19 19 19 19 19 19 19 19 19 19 19 19 19 19 19
20 20 20 20 20 20 20 20 19 19 19 19 19 19 19 19 19 19 19 19 19 19 19 19 19 19 19 19 19 19 19 19 19 19 19 19 19 19 19 19 19 19 19
21 21 20 20 20 20 20 19 19 19 19 19 19 19 19 19 19 19 19 19 19 19 19 19 19 19 18 18 19 19 19 19 19 19 19 19 19 19 19 19 19 19 19
21 21 21 20 20 20 19 19 19 19 19 19 19 19 19 19 19 19 19 19 19 19 19 19 19 19 19 18 19 19 19 19 19 19 19 19 19 19 19 19 19 19 19
21 21 21 20 20 19 19 19 19 19 19 19 19 19 19 19 18 18 19 18 18 18 19 19 19 19 19 19 19 19 19 19 19 19 19 19 19 19 19 19 19 19 19
21 20 20 20 20 19 19 19 19 19 19 19 19 19 19 18 18 18 18 18 18 18 18 19 19 19 19 19 19 19 19 19 19 18 19 19 18 19 19 19 19 19 19
21 20 20 20 20 19 19 19 19 19 19 19 19 19 18 18 18 18 18 18 18 18 18 19 19 18 19 19 19 19 19 19 18 18 18 19 18 18 18 19 19 18 19
21 20 20 20 20 19 19 19 19 19 19 19 19 19 18 18 18 18 18 18 18 18 18 18 18 18 18 18 19 19 19 19 19 18 18 18 18 18 18 18 18 18 18
21 21 20 20 20 19 19 19 19 19 19 19 19 18 18 18 18 18 18 18 18 18 18 18 18 18 18 18 18 18 18 19 19 18 18 18 18 18 18 18 18 18 18
21 21 20 20 20 20 19 19 19 19 19 19 18 18 18 18 18 18 18 18 18 18 18 18 18 18 18 18 17 17 17 18 18 18 18 18 18 18 19 19 19 18 18
21 20 20 20 20 20 19 19 19 19 19 19 18 18 18 18 18 18 18 18 18 18 18 18 17 17 17 17 17 17 17 18 18 18 18 18 18 18 19 19 19 19 18
21 21 21 21 20 20 20 19 19 19 19 19 18 18 18 18 18 18 18 18 18 18 18 17 17 17 17 17 17 17 17 17 17 17 17 18 18 18 18 18 19 19 18
21 21 21 21 20 20 20 20 20 19 19 19 18 18 18 18 18 18 18 18 18 18 17 17 17 17 17 17 17 17 17 17 17 17 17 18 18 18 18 18 18 18 18
21 21 21 21 21 21 20 20 20 19 19 19 19 18 18 18 17 18 18 18 18 17 17 17 17 17 17 17 16 16 17 17 17 17 17 17 17 18 18 18 18 18 18
22 22 22 21 21 21 20 20 20 20 19 19 19 18 18 17 17 18 18 18 17 17 17 17 17 17 17 16 16 16 16 17 17 17 17 17 17 17 17 18 18 18 18
22 22 22 22 21 21 20 20 20 19 19 19 19 18 18 17 17 17 17 17 17 17 17 17 17 17 17 17 16 16 16 16 16 16 16 17 17 17 17 17 17 17 17
23 23 23 22 21 21 20 20 19 19 19 19 19 18 18 17 17 17 17 17 17 17 17 17 17 17 17 17 16 16 16 16 16 16 16 16 16 17 17 17 17 17 17
23 23 23 22 21 21 20 20 20 19 19 19 19 18 18 18 17 17 17 17 17 17 17 17 17 17 17 17 16 16 15 16 16 16 16 16 16 17 17 17 17 17 17
24 23 23 22 21 21 20 20 19 19 19 19 18 18 18 18 18 17 17 17 17 17 17 17 17 17 17 16 16 16 15 15 16 16 16 16 16 17 17 17 17 17 16
25 24 23 22 22 21 20 19 19 19 18 18 18 18 18 18 18 18 17 17 17 17 17 17 17 17 16 16 16 16 15 15 15 16 16 16 16 17 17 17 17 17 16
24 23 23 22 21 21 20 19 19 19 18 18 18 18 18 18 18 18 17 17 17 17 17 17 17 16 16 16 16 15 15 15 15 15 15 16 16 16 16 16 16 16 16
24 23 23 22 21 21 20 20 19 19 18 18 18 18 18 18 18 18 18 17 17 17 17 17 17 16 16 16 16 15 15 15 15 15 15 15 16 16 16 16 16 16 16
24 23 23 22 21 20 20 19 19 18 18 18 18 18 18 18 18 18 17 17 17 17 17 17 17 17 16 16 16 16 16 15 15 15 15 15 15 15 16 16 16 16 16
23 23 22 22 21 20 20 19 19 19 18 18 18 18 17 17 17 17 17 17 16 16 16 16 17 17 16 16 16 16 16 16 16 15 15 15 15 15 15 15 16 16 16
22 22 22 22 21 21 20 19 18 18 18 18 17 17 17 17 17 17 17 16 16 16 16 16 16 16 16 16 16 16 16 16 16 16 16 15 15 15 15 15 15 16 16
20 21 21 21 21 20 20 19 18 18 18 17 17 17 17 17 17 17 16 16 16 16 15 15 16 16 16 16 16 16 16 16 16 16 15 16 16 16 15 15 15 15 16
Wind_Speed
8 11 16 15 14 14 13 13 13 12 12 11 12 12 12 14 15 14 14 14 13 13 13 12 12 11 11 12 12 12 11 11 12 11 10 9 9 8 8 12 10 7 8
13 14 17 15 14 14 14 13 13 13 12 12 12 12 13 14 15 14 14 14 14 13 12 13 13 12 11 11 12 12 11 10 10 10 9 9 11 13 14 13 10 8 10
15 15 17 17 14 13 14 13 13 13 12 12 12 13 13 14 13 13 13 13 13 14 14 14 14 14 12 11 12 11 10 8 8 9 9 8 10 12 13 12 11 11 10
16 16 17 18 16 14 14 14 13 13 13 13 13 13 13 13 13 13 12 12 13 14 14 14 15 15 12 12 12 11 10 8 7 9 9 8 8 9 11 11 10 10 9
14 15 17 19 16 15 14 14 14 14 15 14 14 14 13 14 14 14 12 11 13 14 14 13 13 14 13 12 11 11 11 11 10 10 9 8 6 7 9 10 9 7 8
14 14 17 20 17 15 14 14 14 14 14 14 14 14 14 14 14 14 13 12 13 13 12 12 11 11 11 11 10 10 10 12 11 9 8 8 6 7 8 10 9 7 8
12 12 15 18 16 15 14 14 14 14 14 14 14 14 14 14 13 14 13 12 12 12 11 10 9 8 8 8 9 10 10 10 11 9 8 8 7 8 8 8 8 7 7
13 10 12 16 15 14 14 14 14 14 15 14 14 14 14 13 13 13 12 11 10 10 10 9 8 6 5 6 8 11 11 9 10 8 7 8 9 9 8 8 7 7 7
12 10 8 12 13 13 13 14 14 15 15 14 14 13 13 13 12 13 12 11 10 10 10 8 7 5 3 5 7 9 10 10 9 7 7 7 9 8 7 7 7 7 7
9 9 7 9 11 11 11 14 15 16 15 14 14 14 14 13 13 13 12 11 11 11 10 8 6 4 2 3 5 8 12 13 10 8 6 5 6 6 6 6 6 6 6
9 8 8 7 8 10 11 13 15 15 15 14 13 14 13 11 12 12 11 11 11 11 10 8 6 4 2 2 4 9 10 9 9 7 6 5 4 4 4 4 4 4 5
12 11 10 10 8 9 10 11 11 12 13 12 11 11 11 10 10 12 13 12 11 10 9 8 6 3 0 3 4 8 8 8 6 5 5 4 3 3 3 3 3 4 5
16 14 12 11 10 8 6 8 7 9 10 10 11 11 10 8 8 9 9 10 9 9 6 4 1 3 3 2 3 7 8 7 6 6 6 4 3 4 3 4 4 5 5
14 14 14 13 11 9 7 6 6 6 6 6 10 12 9 6 5 6 5 6 6 6 5 2 2 2 6 9 8 7 6 5 6 7 8 6 3 4 5 5 5 4 4
15 15 15 14 13 10 8 6 5 4 5 8 10 11 11 6 6 4 4 6 7 6 4 3 3 4 7 8 7 7 5 5 8 8 9 9 6 5 5 6 6 6 6
16 18 15 16 15 12 10 8 7 5 7 8 8 10 13 10 6 4 5 4 6 7 6 5 6 5 5 4 5 6 5 5 6 7 9 11 11 9 7 8 8 8 8
18 19 16 17 15 14 12 10 7 6 8 6 8 10 12 12 10 7 6 6 6 8 7 5 6 6 6 4 5 5 5 5 5 6 7 8 10 12 10 9 9 10 10
18 19 18 17 14 13 11 10 7 6 7 6 8 10 11 11 10 7 6 7 8 8 6 5 5 5 5 4 3 3 3 4 4 5 5 5 7 9 12 13 11 11 11
19 19 17 15 15 14 12 9 7 5 6 5 7 8 9 9 9 5 5 5 8 6 5 6 4 4 5 5 4 3 3 4 3 4 4 4 6 8 10 12 14 15 11
17 16 14 14 15 13 9 7 4 5 5 5 5 6 8 7 7 5 3 4 5 5 5 5 5 3 4 5 5 3 3 4 3 3 3 4 5 6 8 8 9 11 12
15 15 14 14 14 11 7 6 5 5 5 5 5 6 7 7 5 4 4 5 5 6 7 7 5 4 3 3 4 3 3 3 2 2 2 3 3 5 6 5 5 6 8
17 15 14 14 12 11 9 6 4 4 4 4 4 4 6 6 5 4 5 5 4 4 6 7 6 4 3 3 4 4 1 3 3 2 1 3 4 4 5 6 6 6 6
15 15 13 11 11 9 9 6 5 4 4 2 2 3 4 6 7 5 5 5 5 5 6 7 7 7 5 4 3 4 4 4 2 3 2 2 3 3 3 6 8 8 7
12 11 12 10 10 9 9 9 8 5 4 5 4 4 4 5 5 6 5 5 5 4 5 6 7 5 7 6 3 2 2 4 4 2 3 2 3 4 5 4 8 9 8
7 9 10 9 8 8 8 9 8 5 4 3 3 5 5 4 4 5 5 5 6 4 5 6 6 6 5 6 5 3 2 1 2 3 3 3 2 3 4 5 6 8 10
5 7 8 7 5 6 7 7 8 8 7 5 4 5 4 2 2 4 4 5 6 6 6 6 7 7 6 6 5 4 4 3 3 3 2 3 4 4 4 4 4 7 11
Wind_Direction
157 161 156 148 140 134 129 127 127 127 127 123 118 113 107 102 100 97 94 91 91 89 84 81 87 90 88 89 89 88 94 112 124 127 118 111 112 111 111 109 101 88 92
156 160 159 153 146 140 134 129 130 130 129 128 126 122 118 112 107 102 98 95 94 95 95 92 90 91 90 89 89 88 91 102 112 119 112 99 94 94 98 100 99 95 93
153 161 162 158 154 148 142 137 132 131 132 129 125 124 122 119 115 111 108 105 103 101 100 99 96 94 94 95 90 86 86 88 96 107 102 88 87 92 98 100 99 98 99
157 161 163 162 161 157 151 146 140 133 129 125 124 126 125 120 117 115 111 109 108 107 105 102 100 98 94 92 89 85 85 87 95 107 96 79 76 90 101 99 95 97 106
159 162 166 165 164 163 159 152 149 140 132 128 127 129 127 122 119 115 112 109 110 110 107 103 100 100 98 93 86 82 87 93 99 105 98 86 78 89 101 103 95 110 115
159 164 170 164 164 166 162 155 154 146 138 134 134 136 133 129 126 121 120 116 113 114 109 104 99 96 97 96 87 75 86 101 100 107 111 107 101 101 105 112 113 122 119
154 163 170 160 162 166 162 159 159 154 146 142 141 141 140 136 131 127 125 123 121 121 118 109 100 93 88 87 82 70 70 107 105 103 102 104 110 110 108 114 116 125 127
150 154 163 159 161 165 162 160 160 157 153 150 147 145 144 138 133 130 129 131 129 131 130 121 113 102 83 67 61 59 63 106 113 100 88 91 99 100 105 107 107 115 125
150 151 151 156 161 166 165 164 160 158 158 154 151 148 141 138 138 135 134 137 135 137 139 139 138 126 79 53 49 51 67 101 117 97 88 80 89 94 102 105 107 109 112
150 153 152 154 155 157 164 166 161 160 160 156 155 151 145 144 145 142 140 146 145 146 148 156 161 147 112 70 69 74 89 94 91 84 81 89 93 95 98 107 112 111 114
157 158 158 157 155 153 159 166 162 162 162 159 159 156 147 145 147 145 151 160 155 153 157 167 177 173 155 57 71 92 90 97 89 78 75 100 115 115 110 113 126 130 127
172 173 172 168 163 160 165 158 157 156 158 159 160 152 149 155 159 158 165 169 168 166 169 178 191 207 181 27 44 86 80 84 84 73 72 90 127 147 149 146 143 150 147
177 176 178 173 169 169 159 155 155 153 158 163 165 163 162 166 165 159 167 178 180 179 183 192 204 277 211 151 103 98 94 82 70 60 55 76 127 157 172 171 150 148 154
177 180 179 174 172 173 160 161 160 160 166 171 179 176 160 156 161 168 171 181 189 191 195 164 63 33 124 132 121 109 105 95 76 58 49 62 101 150 159 164 155 147 158
178 183 180 173 172 171 163 167 167 169 173 181 182 179 168 165 173 175 178 190 199 204 201 156 138 109 109 117 115 114 106 101 87 69 52 62 83 110 135 147 143 128 125
176 183 179 176 174 170 172 176 178 174 179 181 183 181 177 180 183 177 189 203 204 204 203 175 158 135 124 121 118 128 135 129 108 85 61 54 62 82 106 124 131 129 128
176 179 178 179 175 174 175 181 180 179 182 183 190 191 179 180 183 186 193 205 209 202 188 162 148 131 124 120 120 131 149 161 138 107 83 60 53 61 83 104 117 122 121
174 176 181 180 175 176 177 182 178 182 184 184 189 195 188 180 180 178 181 190 192 176 153 146 147 136 131 129 121 105 114 134 142 126 103 79 67 62 62 70 85 104 108
177 177 179 172 171 179 179 182 178 171 171 169 180 197 200 190 185 167 174 181 178 164 153 152 150 151 147 146 138 115 104 121 156 130 110 112 104 86 72 64 64 68 79
178 176 174 166 171 174 170 165 149 150 160 167 179 193 201 198 190 166 162 173 173 169 157 143 143 153 159 159 139 111 89 107 132 138 147 141 137 120 100 82 68 59 59
173 174 172 168 173 167 160 159 159 171 173 184 191 191 192 195 186 159 151 160 180 184 169 147 134 146 149 132 101 72 21 35 128 156 144 147 150 146 137 121 98 80 63
173 175 173 170 168 166 165 159 155 157 175 187 180 183 191 185 172 171 164 160 181 176 160 160 147 142 153 158 136 124 72 353 329 323 149 167 174 152 147 160 138 115 102
173 174 168 158 153 152 143 126 107 95 87 109 168 195 201 193 188 182 170 156 164 173 183 179 166 154 161 179 166 148 153 197 247 307 280 173 176 156 141 156 162 148 136
169 155 141 138 140 143 139 142 147 150 158 182 182 192 208 200 195 191 178 155 159 172 191 195 186 173 158 168 174 188 165 159 155 216 302 276 216 190 162 151 165 170 162
126 131 127 123 131 139 142 145 141 136 148 153 155 180 200 201 199 198 185 161 160 177 195 201 199 186 169 169 165 165 150 129 122 143 213 255 257 240 196 166 166 172 171
116 116 113 125 139 137 134 135 140 147 154 153 160 177 195 197 206 206 189 173 169 183 195 201 204 194 186 174 170 167 162 162 166 145 169 219 225 237 215 188 177 178 181
Height
1512 1514 1516 1518 1519 1520 1521 1522 1523 1524 1525 1526 1527 1527 1527 1528 1529 1529 1530 1530 1530 1530 1530 1530 1530 1530 1530 1531 1531 1531 1531 1532 1532 1534 1535 1535 1536 1536 1536 1537 1536 1536 1535
1511 1513 1516 1518 1519 1521 1522 1523 1524 1525 1525 1526 1526 1527 1528 1529 1529 1530 1531 1531 1531 1530 1530 1531 1531 1531 1531 1531 1532 1532 1532 1532 1533 1534 1535 1536 1536 1537 1537 1537 1537 1537 1537
1511 1513 1515 1517 1519 1521 1522 1523 1524 1525 1525 1526 1527 1528 1529 1530 1530 1531 1531 1531 1531 1531 1531 1531 1532 1532 1531 1532 1532 1532 1533 1533 1534 1535 1536 1537 1537 1537 1538 1538 1539 1539 1539
1511 1513 1515 1517 1519 1520 1521 1523 1524 1524 1526 1527 1528 1529 1530 1531 1531 1531 1532 1532 1532 1532 1532 1532 1532 1533 1532 1532 1533 1533 1534 1534 1535 1536 1536 1537 1538 1538 1539 1539 1539 1540 1540
1511 1513 1515 1517 1518 1519 1521 1523 1524 1525 1526 1527 1528 1529 1530 1531 1531 1532 1532 1533 1533 1533 1533 1533 1534 1534 1534 1534 1534 1534 1534 1535 1536 1536 1537 1538 1538 1539 1539 1540 1541 1541 1542
1512 1513 1515 1517 1518 1519 1521 1522 1524 1525 1526 1527 1528 1529 1530 1531 1532 1532 1533 1533 1534 1534 1535 1535 1535 1535 1535 1535 1535 1535 1535 1536 1536 1537 1537 1538 1539 1539 1540 1541 1542 1542 1543
1512 1514 1515 1517 1518 1519 1520 1522 1523 1524 1525 1527 1528 1529 1530 1531 1532 1533 1534 1534 1534 1535 1536 1536 1536 1536 1536 1536 1536 1536 1535 1536 1537 1538 1538 1538 1539 1540 1540 1541 1542 1542 1543
1512 1513 1515 1516 1518 1519 1520 1521 1523 1524 1525 1527 1528 1529 1530 1532 1533 1534 1534 1534 1535 1536 1536 1537 1537 1538 1538 1538 1537 1536 1536 1537 1538 1538 1538 1538 1539 1539 1540 1541 1542 1542 1543
1512 1513 1515 1516 1517 1518 1519 1521 1522 1524 1525 1527 1528 1529 1531 1532 1533 1534 1535 1535 1536 1537 1537 1538 1538 1539 1539 1539 1539 1538 1538 1538 1539 1539 1539 1539 1539 1540 1540 1541 1542 1542 1543
1513 1514 1515 1516 1517 1518 1519 1521 1522 1524 1525 1527 1528 1530 1531 1532 1534 1534 1535 1536 1536 1537 1538 1539 1539 1539 1540 1540 1540 1541 1540 1540 1539 1539 1539 1539 1540 1540 1541 1541 1542 1542 1543
1514 1514 1515 1516 1517 1518 1519 1521 1522 1524 1525 1527 1528 1530 1531 1532 1534 1534 1535 1536 1537 1538 1539 1540 1541 1540 1541 1541 1542 1542 1542 1541 1540 1539 1539 1539 1540 1540 1541 1541 1542 1543 1543
1513 1514 1514 1515 1516 1518 1519 1521 1522 1523 1525 1527 1528 1530 1531 1532 1534 1535 1535 1536 1537 1538 1539 1540 1541 1542 1542 1542 1542 1542 1542 1541 1540 1539 1539 1539 1539 1540 1541 1542 1542 1543 1543
1510 1512 1514 1515 1516 1517 1519 1520 1522 1524 1525 1526 1528 1530 1531 1533 1534 1535 1536 1537 1537 1538 1539 1540 1541 1542 1542 1542 1542 1542 1542 1541 1540 1539 1539 1539 1539 1540 1541 1542 1542 1543 1543
1510 1511 1513 1515 1516 1517 1518 1520 1522 1523 1525 1526 1528 1529 1531 1532 1534 1535 1536 1537 1538 1539 1540 1540 1540 1541 1542 1542 1543 1543 1542 1541 1540 1539 1539 1539 1539 1539 1540 1541 1542 1542 1543
1509 1510 1511 1513 1515 1516 1518 1519 1521 1522 1524 1526 1528 1529 1531 1532 1534 1536 1537 1538 1539 1540 1540 1540 1540 1541 1542 1543 1543 1543 1543 1543 1542 1541 1540 1540 1539 1540 1540 1541 1542 1543 1543
1506 1508 1509 1511 1513 1515 1516 1518 1519 1521 1523 1525 1527 1529 1530 1532 1534 1536 1537 1538 1539 1540 1541 1541 1540 1541 1543 1544 1544 1544 1544 1544 1543 1542 1541 1541 1541 1541 1541 1541 1542 1543 1544
1502 1505 1507 1509 1511 1513 1515 1517 1518 1520 1522 1524 1526 1528 1530 1531 1533 1535 1537 1538 1539 1540 1541 1542 1542 1541 1542 1544 1544 1544 1544 1545 1544 1543 1543 1543 1543 1543 1543 1543 1543 1544 1545
1499 1501 1503 1506 1509 1511 1514 1515 1517 1519 1520 1522 1524 1527 1529 1530 1532 1533 1535 1536 1538 1539 1540 1541 1542 1542 1542 1543 1544 1544 1544 1545 1545 1544 1545 1545 1545 1545 1545 1545 1546 1546 1546
1496 1498 1500 1503 1506 1509 1512 1514 1516 1517 1519 1521 1523 1525 1527 1529 1530 1532 1533 1534 1535 1537 1538 1540 1541 1542 1542 1542 1543 1544 1544 1545 1546 1545 1545 1546 1547 1547 1547 1547 1547 1548 1547
1494 1496 1498 1500 1503 1506 1509 1512 1514 1516 1517 1519 1521 1522 1525 1527 1529 1530 1532 1532 1534 1535 1536 1537 1539 1541 1542 1543 1543 1544 1544 1545 1546 1546 1546 1546 1547 1547 1547 1548 1548 1549 1549
1491 1493 1495 1497 1500 1503 1506 1508 1510 1512 1514 1516 1518 1520 1522 1525 1526 1528 1529 1530 1532 1533 1534 1535 1537 1538 1540 1541 1542 1544 1544 1544 1545 1546 1546 1546 1546 1546 1547 1548 1548 1549 1549
1485 1489 1492 1494 1498 1500 1504 1507 1509 1511 1513 1515 1516 1518 1520 1522 1524 1525 1526 1528 1529 1531 1531 1532 1533 1535 1537 1538 1540 1542 1543 1544 1544 1545 1545 1545 1545 1546 1547 1547 1548 1549 1549
1482 1485 1488 1492 1496 1499 1502 1505 1507 1509 1510 1512 1514 1516 1518 1519 1521 1522 1523 1524 1525 1526 1527 1528 1529 1531 1533 1535 1537 1539 1540 1540 1541 1543 1543 1544 1544 1545 1545 1547 1547 1548 1549
1479 1482 1485 1490 1494 1497 1499 1501 1503 1505 1507 1509 1512 1514 1516 1517 1518 1519 1520 1521 1522 1523 1524 1525 1526 1527 1529 1531 1533 1536 1538 1538 1539 1540 1542 1543 1543 1544 1544 1545 1546 1547 1548
1480 1482 1485 1490 1494 1496 1497 1499 1500 1502 1504 1507 1509 1512 1514 1515 1515 1515 1516 1517 1518 1519 1520 1521 1522 1523 1525 1527 1529 1532 1534 1536 1537 1538 1539 1540 1542 1542 1543 1543 1544 1546 1547
1481 1484 1486 1490 1493 1494 1495 1497 1498 1501 1503 1505 1507 1509 1511 1512 1512 1512 1512 1513 1514 1515 1515 1517 1518 1519 1521 1523 1525 1527 1530 1532 1533 1535 1537 1538 1539 1540 1541 1542 1542 1544 1545